Regional Weather Roundup
Issued by NWS

Home | Current Version | Previous Version | Text Only | Print | Product List | Glossary Off
Versions: 1 2 3 4 5 6 7 8 9 10 11 12 13 14 15 16 17 18 19 20 21 22 23 24 25 26 27 28 29 30 31 32 33 34 35 36 37 38 39 40 41 42 43 44 45 46 47 48 49 50

000
ASUS43 KMKX 162100
RWRWI

WISCONSIN REGIONAL WEATHER ROUNDUP
NATIONAL WEATHER SERVICE MILWAUKEE/SULLIVAN WI
400 PM CDT TUE SEP 16 2014

NOTE: "FAIR" INDICATES FEW OR NO CLOUDS BELOW 12,000 FEET WITH NO
SIGNIFICANT WEATHER AND/OR OBSTRUCTIONS TO VISIBILITY.

WIZ001-002-006>008-014>016-023>028-162200-
NORTHWEST WISCONSIN

CITY           SKY/WX    TMP DP  RH WIND       PRES   REMARKS
SUPERIOR ARPT  SUNNY     70  44  38 W9G17     30.00F
ASHLAND        SUNNY     68  45  43 SW12G23   30.01F
HAYWARD        SUNNY     65  41  41 SW9G20    30.06F
SIREN          SUNNY     67  40  37 W8        30.07S
RICE LAKE      MOSUNNY   66  40  38 SW8       30.09F
LADYSMITH      SUNNY     65  42  42 W8        30.09F
EAU CLAIRE     SUNNY     66  40  38 S7        30.08F
MENOMONIE      CLEAR     67  39  35 SW8       30.08F
NEW RICHMOND   SUNNY     66  39  36 SW7       30.08F
OSCEOLA        SUNNY     67  41  39 SW9       30.10F
$$

WIZ003>005-009-010-017-018-162200-
NORTH CENTRAL WISCONSIN

CITY           SKY/WX    TMP DP  RH WIND       PRES   REMARKS
WOODRUFF       SUNNY     64  38  37 W14G22    30.04S
RHINELANDER    MOSUNNY   64  41  42 W13       30.06F
EAGLE RIVER    SUNNY     65  37  35 W10G21    30.03F
LAND O LAKES   SUNNY     65  38  37 W13       30.04S
PHILLIPS       MOSUNNY   63  41  45 W8        30.06F
TOMAHAWK       MOSUNNY   64  41  42 W7        30.07F
MEDFORD        SUNNY     63  41  45 SW7       30.08F
MERRILL        PTSUNNY   65  43  43 W10G17    30.07F
$$

WIZ029-030-035-036-043>047-162200-
CENTRAL WISCONSIN

CITY           SKY/WX    TMP DP  RH WIND       PRES   REMARKS
WAUSAU         MOSUNNY   64  42  44 W9        30.07F
MOSINEE        MOSUNNY   64  45  48 SW9G17    30.10F
MARSHFIELD     SUNNY     64  42  44 W7        30.09F
STEVENS POINT  SUNNY     63  40  43 W6        30.10S
WAUPACA        SUNNY     67  42  39 W9        30.10S
WAUTOMA        NOT AVBL
WISC RAPIDS    SUNNY     65  41  41 SW6       30.11F
CAMP DOUGLAS   NOT AVBL
$$

WIZ011>013-019>022-031-037>040-048>050-162200-
NORTHEAST WISCONSIN

CITY           SKY/WX    TMP DP  RH WIND       PRES   REMARKS
ANTIGO         PTSUNNY   62  42  49 W12       30.07F
STURGEON BAY   SUNNY     63  43  48 SW13G21   30.07S
GREEN BAY      SUNNY     65  43  44 SW14      30.08F
MANITOWOC      NOT AVBL
APPLETON       MOSUNNY   64  39  39 SW9       30.09F
CLINTONVILLE   MOSUNNY   64  39  39 W9G16     30.08S
OSHKOSH        SUNNY     64  43  46 SW5       30.09F
$$

WIZ032>034-041-042-053>061-162200-
SOUTHWEST WISCONSIN

CITY           SKY/WX    TMP DP  RH WIND       PRES   REMARKS
LA CROSSE      SUNNY     68  42  38 W3        30.10F
SPARTA         SUNNY     65  40  40 S6        30.11F
VIROQUA        FAIR      64  42  45 NW6       30.12F
BOSCOBEL       MOSUNNY   66  43  43 VRB6      30.12F
PRAIRIE DU CHI SUNNY     65  41  40 SW5       30.11F
PLATTEVILLE    FAIR      63  43  48 CALM      30.14F
$$

WIZ056-057-062-063-064-067-068-162200-
SOUTH CENTRAL WISCONSIN

CITY           SKY/WX    TMP DP  RH WIND       PRES   REMARKS
BARABOO/DELLS  SUNNY     64  38  37 W6        30.12S
LONE ROCK      NOT AVBL
WATERTOWN      SUNNY     64  43  46 W7        30.11F
MADISON        MOSUNNY   65  42  43 N3        30.12F
MIDDLETON      FAIR      65  41  42 NW5       30.12F
MONROE         SUNNY     63  41  45 SW9       30.12F
JANESVILLE     SUNNY     66  39  37 NW8       30.11F
$$

WIZ051-052-058>065-066-070>072-162200-
SOUTHEAST WISCONSIN

CITY           SKY/WX    TMP DP  RH WIND       PRES   REMARKS
MILWAUKEE      MOSUNNY   64  39  39 SW9       30.12F
WAUKESHA       SUNNY     61  41  48 W8        30.13
MILWAUKEE/TIMM NOT AVBL
RACINE         SUNNY     61  41  47 E8        30.14F
BURLINGTON     SUNNY     63  39  41 SW3       30.12F
KENOSHA        SUNNY     64  42  44 CALM      30.12F
FOND DU LAC    SUNNY     64  41  42 VRB5      30.10F
SHEBOYGAN      SUNNY     64  40  41 W9        30.10F
WEST BEND      SUNNY     61  37  41 SW8       30.11F
JUNEAU         SUNNY     62  42  48 SW12      30.12F
$$

LSZ147-162-162200-
LAKE SUPERIOR

STATION/POSITION TIME  TEMP    WIND        PRES    WAVE
                       AIR SEA DIR/SP/G            HT/PER
                 (UTC) (F)     (DEG/KT/KT) (MB)    (FT/S)
W MID LAKE BUOY  1950   54 46  240/ 16/ 17 1014.3F   4/ 6
DEVILS ISLAND    2000   60     240/ 21/ 23 1015.1F
PORT WING        2000   67     260/ 11/ 18 1016.3F
SAXON HARBOR     2040   68     250/  8/ 16 1016.3F
$$

LMZ867-665-643>646-162200-
LAKE MICHIGAN

STATION/POSITION TIME  TEMP    WIND        PRES    WAVE
                       AIR SEA DIR/SP/G            HT/PER
                 (UTC) (F)     (DEG/KT/KT) (MB)    (FT/S)
N MID LAKE BUOY  1950   57 58  210/ 17/ 21 1017.4F   2/ 4
NORTHPORT PIER   2000   64     200/  6/ 14 1017.3F
KEWAUNEE LAKESHO 2000   63     220/  8/ 11 1017.8F
SHEBOYGAN LAKESH 2000   58 48  140/  5/  6 1020.0F
PORT WASHINGTON  2000   63     170/  8/ 12 1020.3F
ATWATER BUOY     2000   59     130/ 10/ 12 1021.1F
MILWAUKEE LAKESH 2000   58     110/  7/  9   N/A
S MID LAKE BUOY  1950   58 65  300/  8/ 12 1021.0F   1/ 4
KENOSHA   LAKESH 2000   60     110/  6/  7 1020.0F
$$

TC  - TEMPERATURE IN CELSIUS
VSB - VISIBILITY IN STATUTE MILES
WCI - WIND CHILL INDEX
HX  - HEAT INDEX




USA.gov is the U.S. government's official web portal to all federal, state and local government web resources and services.